FENGYUN 1C DEB, 31009

Orbit data source: Space-Track

FENGYUN 1C DEB, 31009 is space debris in SSO originally from a launch on Mon, 10 May 1999 UTC launched from the Taiyaun Space Center, China (TSC). Fengyun 1C debris stems from the Chinese weather satellite Fengyun-1C, which was intentionally destroyed by a Chinese anti-satellite missile in 2007. This event dramatically increased the amount of space debris, with thousands of trackable fragments posing hazards to satellites and human spaceflight. The Fengyun 1C debris cloud has become a focal point in discussions about space sustainability and the need for international regulations to prevent the creation of new debris.

Loading next visibility...
Identifier
31009, 1999-025BDB
Orbit
SSO
Country
Flag of CNCN / PRC
Related business
Manufacturer
Unknown
Mission
Spacecraft
Bus & Motor
Unknown
Mass
Unknown
Launch date (UTC)
1999-05-10 (27 years ago)
Launch vehicle
Unknown
Launch site
Taiyaun Space Center, China (TSC)
Object type
Payload
Rocket body
Debris
Shape & HBR
Unknown shape, 0.1 m
Radar Cross Section
Small (<0.1 m²)

Expand to show TLE details & history
Last TLE update: 19 hours ago

TLE from 19 hours ago
0 FENGYUN 1C DEB
1 31009U 99025BDB 26254.95584225 -.00000106  00000-0 -41457-4 0  9991
2 31009  98.9149 248.8237 0054590 197.6678 218.0900 14.00569223996855
Epoch: 2026-09-11T22:56Z
TLE epoch observation values (Epoch: 2026-09-11T22:56:24.770Z)
Latitude
54.48319°
Longitude
-98.87979°
Altitude
932.088 km
Speed
7.375 km/s
True Right ascension
15h 44m 46s
True Declination
54° 19' 27"
Sunlit
Object was in daylight at epoch
Visualization orbit readout
Latitude
Unknown
Longitude
Unknown
Altitude
Unknown
Speed
Unknown
Apparent Right ascension
Unknown
Apparent Declination
Unknown
Sunlit
N/A
Visualization observer readout
Local Sidereal Time
10:39:00
Azimuth
Unknown
Elevation
Unknown
Doppler factor
Unknown
Orbital elements
Apogee altitude
928.69 km
Perigee altitude
849.348 km
Semi-major axis
7,267.156 km
Eccentricity
0.00546
Inclination
98.9149°
RAAN
248.8237°
Arg. of periapsis
197.6678°
True anomaly
217.70616°
Mean anomaly
218.09°
Eccentric anomaly
217.89787°
Mean motion
3.50345 °/min
Orbital period
102.76 mins
BSTAR
-0.000041457
Loading maneuver chart data...
Computing Atmospheric mass density...
Loading historical data...
Loading historical data...
Loading historical data...
Loading historical data...
Loading historical data...
Loading historical data...
Loading historical data...

Documentation

Showing up to 5 results
|